Snowfall_Accumulation
0.0 0.0 0.0 0.0 0.0 0.0 0.0 0.0 0.0 0.0 0.0 0.0 0.0 0.0 0.0 0.0 0.0 0.0 0.0 nan nan nan nan nan nan nan nan nan nan nan nan nan nan nan nan nan nan nan
0.0 0.0 0.0 0.0 0.0 0.0 0.0 0.0 0.0 0.0 0.0 0.0 0.0 0.0 0.0 0.0 0.0 0.0 0.0 nan nan nan nan nan nan nan nan nan nan nan nan nan nan nan nan nan nan nan
0.0 0.0 0.0 0.0 0.0 0.0 0.0 0.0 0.0 0.0 0.0 0.0 0.0 0.0 0.0 0.0 0.0 0.0 0.0 0.0 0.0 nan nan nan nan nan nan nan nan nan nan nan nan nan nan nan nan nan
0.0 0.0 0.0 0.0 0.0 0.0 0.0 0.0 0.0 0.0 0.0 0.0 0.0 0.0 0.0 0.0 0.0 0.0 0.0 0.0 0.0 nan nan nan nan nan nan nan nan nan nan nan nan nan nan nan nan nan
0.0 0.0 0.0 0.0 0.0 0.0 0.0 0.0 0.0 0.0 0.0 0.0 0.0 0.0 0.0 0.0 0.0 0.0 0.0 0.0 0.0 nan nan nan nan nan nan nan nan nan nan nan nan nan nan nan nan nan
0.0 0.0 0.0 0.0 0.0 0.0 0.0 0.0 0.0 0.0 0.0 0.0 0.0 0.0 0.0 0.0 0.0 0.0 0.0 0.0 0.0 0.0 nan nan nan nan nan nan nan nan nan nan nan nan nan nan nan nan
0.0 0.0 0.0 nan nan nan 0.0 0.0 0.0 0.0 0.0 0.0 0.0 0.0 0.0 0.0 0.0 0.0 0.0 0.0 0.0 0.0 0.0 0.0 0.0 0.0 0.0 nan nan nan nan nan nan nan nan nan nan nan
0.0 0.0 0.0 0.0 0.0 nan nan nan nan 0.0 0.0 0.0 0.0 0.0 0.0 0.0 0.0 0.0 0.0 0.0 0.0 0.0 0.0 0.0 0.0 0.0 0.0 0.0 nan nan nan nan nan nan nan nan nan nan
0.0 0.0 0.0 0.0 nan 0.0 nan nan nan nan nan 0.0 0.0 0.0 0.0 0.0 0.0 0.0 0.0 0.0 0.0 0.0 0.0 0.0 0.0 0.0 0.0 0.0 nan nan nan nan nan nan nan nan nan nan
0.0 0.0 0.0 0.0 0.0 0.0 0.0 0.0 0.0 0.0 0.0 0.0 0.0 0.0 0.0 0.0 0.0 0.0 0.0 0.0 0.0 0.0 0.0 0.1 0.0 0.0 0.0 0.0 nan nan nan nan nan nan nan nan nan nan
0.0 0.0 0.0 0.0 nan nan 0.0 0.0 0.0 0.0 nan nan nan nan nan nan nan 0.0 0.1 0.2 0.1 0.0 0.0 0.0 0.0 0.0 0.0 0.0 0.0 nan nan nan nan nan nan nan nan nan
0.0 0.0 nan 0.0 nan nan 0.0 0.0 0.1 0.0 0.0 0.0 0.0 0.0 nan nan nan 0.0 0.1 0.5 0.4 0.5 0.1 0.5 0.2 0.4 0.7 0.0 0.0 0.0 0.0 nan nan nan nan nan nan 0.0
0.1 0.1 0.0 nan nan nan nan 0.0 0.0 0.0 0.0 0.0 0.0 0.0 0.0 0.0 0.0 0.0 0.0 0.2 0.8 0.7 0.1 0.7 1.3 0.5 1.1 0.7 0.1 0.1 0.0 0.0 0.0 0.0 nan nan nan 0.0
0.1 0.1 0.0 nan nan nan nan nan nan nan 0.0 0.1 0.3 0.3 0.4 0.4 0.3 0.2 0.0 0.1 0.2 0.2 0.0 0.0 7.1 2.0 3.8 2.6 1.1 0.2 0.1 0.0 0.0 0.0 0.0 nan nan nan
0.0 0.0 nan nan nan nan nan nan nan 0.2 0.4 0.8 0.7 0.8 0.8 0.6 0.3 0.6 0.1 0.1 0.7 0.1 0.0 0.2 1.8 0.6 2.0 4.5 3.4 0.8 0.7 0.2 0.1 0.2 0.1 0.1 0.0 0.0
nan 0.0 nan 0.0 nan nan 0.0 0.0 0.0 0.0 0.4 0.5 0.6 0.4 0.5 1.1 1.2 0.9 2.3 2.0 3.2 1.7 0.1 0.2 0.3 0.3 4.0 1.3 2.1 2.6 0.6 5.0 0.4 0.3 0.3 0.1 0.0 0.0
nan 0.0 0.3 0.4 0.2 0.1 0.0 0.0 0.0 0.0 0.3 0.4 0.7 0.7 0.8 1.3 1.8 1.5 3.2 4.0 7.6 4.6 3.8 2.2 0.4 0.4 1.0 2.0 9.1 2.7 3.0 2.8 0.7 1.1 0.9 0.6 0.7 0.4
0.4 0.4 0.7 0.4 0.3 0.1 0.1 0.0 0.0 0.3 0.5 0.7 1.0 1.2 2.2 3.0 4.0 5.0 4.7 5.8 8.2 4.8 5.1 3.2 4.0 6.6 4.3 2.4 2.7 5.0 2.5 3.6 2.6 2.4 1.5 2.9 1.6 1.7
0.4 0.7 0.8 0.6 0.5 0.4 0.5 0.6 1.0 0.6 0.2 1.8 1.8 2.0 2.6 4.2 5.2 8.0 7.3 6.8 7.1 5.3 4.5 4.9 9.7 13.7 17.3 11.3 1.2 nan 5.6 2.5 2.1 4.1 2.9 4.1 4.5 1.2
0.7 1.0 1.3 1.0 0.8 0.7 0.8 1.4 1.5 1.5 1.9 2.2 2.6 3.2 4.3 6.6 8.9 8.7 6.1 9.3 6.9 8.0 10.0 8.6 11.8 15.1 22.9 18.8 15.6 3.5 nan 3.6 3.4 4.5 3.8 1.4 0.9 nan
1.5 1.9 1.3 1.1 1.1 1.1 1.3 1.8 1.8 3.4 4.8 6.1 4.1 5.0 5.1 7.4 7.4 5.5 5.4 3.9 nan 11.6 14.7 10.2 7.2 nan 9.5 11.0 16.8 5.5 2.1 nan 1.1 6.8 5.3 7.1 4.5 2.6
1.8 1.8 1.4 1.2 1.3 1.7 2.5 3.0 4.2 4.2 4.8 4.6 5.3 6.0 5.2 5.7 8.1 6.9 6.8 11.7 7.6 9.8 12.7 9.0 6.8 9.6 14.1 15.7 13.4 7.6 4.8 1.7 nan nan nan nan 14.6 20.8
1.8 1.6 1.7 1.7 1.8 2.6 3.5 5.4 6.6 6.6 5.5 6.4 6.5 5.7 5.5 10.0 4.1 5.2 7.2 6.9 9.1 13.2 11.0 12.2 9.0 9.2 11.6 13.7 15.4 11.7 8.7 7.8 3.4 3.5 2.6 nan nan nan
Water_Equivalent
0.00 0.00 0.00 0.00 0.00 0.00 0.00 0.00 0.00 0.00 0.00 0.00 0.00 0.00 0.00 0.00 0.00 0.00 0.00 nan nan nan nan nan nan nan nan nan nan nan nan nan nan nan nan nan nan nan
0.00 0.00 0.00 0.00 0.00 0.00 0.00 0.00 0.00 0.00 0.00 0.00 0.00 0.00 0.00 0.00 0.00 0.00 0.00 nan nan nan nan nan nan nan nan nan nan nan nan nan nan nan nan nan nan nan
0.00 0.00 0.00 0.00 0.00 0.00 0.00 0.00 0.00 0.00 0.00 0.00 0.00 0.00 0.00 0.00 0.00 0.00 0.00 0.00 0.00 nan nan nan nan nan nan nan nan nan nan nan nan nan nan nan nan nan
0.00 0.00 0.00 0.00 0.00 0.00 0.00 0.00 0.00 0.00 0.00 0.00 0.00 0.00 0.00 0.00 0.00 0.00 0.00 0.00 0.00 nan nan nan nan nan nan nan nan nan nan nan nan nan nan nan nan nan
0.00 0.00 0.00 0.00 0.00 0.00 0.00 0.00 0.00 0.00 0.00 0.00 0.00 0.00 0.00 0.00 0.00 0.00 0.00 0.00 0.00 nan nan nan nan nan nan nan nan nan nan nan nan nan nan nan nan nan
0.00 0.00 0.00 0.00 0.00 0.00 0.00 0.00 0.00 0.00 0.00 0.00 0.00 0.00 0.00 0.00 0.00 0.00 0.00 0.00 0.00 0.00 nan nan nan nan nan nan nan nan nan nan nan nan nan nan nan nan
0.00 0.00 0.00 nan nan nan 0.00 0.00 0.00 0.00 0.00 0.00 0.00 0.00 0.00 0.00 0.00 0.00 0.00 0.00 0.00 0.00 0.00 0.00 0.00 0.00 0.00 nan nan nan nan nan nan nan nan nan nan nan
0.00 0.00 0.00 0.00 0.00 nan nan nan nan 0.00 0.00 0.00 0.00 0.00 0.00 0.00 0.00 0.00 0.00 0.00 0.00 0.00 0.00 0.00 0.00 0.00 0.00 0.00 nan nan nan nan nan nan nan nan nan nan
0.00 0.00 0.00 0.00 nan 0.00 nan nan nan nan nan 0.00 0.00 0.00 0.00 0.00 0.00 0.00 0.00 0.00 0.00 0.00 0.00 0.00 0.00 0.00 0.00 0.00 nan nan nan nan nan nan nan nan nan nan
0.00 0.00 0.00 0.00 0.00 0.00 0.00 0.00 0.00 0.00 0.00 0.00 0.00 0.00 0.00 0.00 0.00 0.00 0.00 0.00 0.00 0.00 0.00 0.04 0.00 0.00 0.00 0.00 nan nan nan nan nan nan nan nan nan nan
0.00 0.00 0.00 0.00 nan nan 0.00 0.00 0.00 0.00 nan nan nan nan nan nan nan 0.00 0.04 0.08 0.04 0.00 0.00 0.01 0.00 0.00 0.00 0.00 0.00 nan nan nan nan nan nan nan nan nan
0.00 0.00 nan 0.00 nan nan 0.00 0.00 0.01 0.01 0.00 0.00 0.00 0.00 nan nan nan 0.00 0.05 0.18 0.17 0.16 0.02 0.20 0.09 0.11 0.23 0.02 0.00 0.00 0.00 nan nan nan nan nan nan 0.00
0.02 0.02 0.00 nan nan nan nan 0.00 0.00 0.00 0.00 0.00 0.00 0.00 0.00 0.00 0.00 0.00 0.00 0.10 0.30 0.25 0.03 0.24 0.49 0.20 0.34 0.22 0.05 0.02 0.00 0.00 0.00 0.00 nan nan nan 0.00
0.02 0.02 0.00 nan nan nan nan nan nan nan 0.00 0.03 0.11 0.12 0.15 0.16 0.12 0.09 0.00 0.02 0.06 0.08 0.01 0.00 2.74 0.63 1.07 0.61 0.30 0.10 0.05 0.01 0.02 0.00 0.00 nan nan nan
0.01 0.00 nan nan nan nan nan nan nan 0.09 0.13 0.22 0.21 0.26 0.28 0.25 0.13 0.22 0.04 0.05 0.27 0.03 0.00 0.10 0.70 0.23 0.66 1.11 0.79 0.26 0.25 0.10 0.05 0.08 0.05 0.02 0.00 0.00
nan 0.00 nan 0.00 nan nan 0.00 0.00 0.00 0.01 0.12 0.17 0.18 0.15 0.19 0.41 0.42 0.34 0.78 0.72 1.03 0.58 0.02 0.07 0.10 0.11 1.16 0.39 0.64 0.62 0.21 1.15 0.17 0.13 0.12 0.05 0.01 0.00
nan 0.01 0.05 0.06 0.03 0.02 0.01 0.00 0.00 0.00 0.12 0.12 0.20 0.22 0.26 0.42 0.56 0.56 1.05 1.24 1.70 1.09 0.90 0.65 0.11 0.11 0.34 0.56 1.77 0.68 0.79 0.68 0.23 0.40 0.34 0.20 0.22 0.16
0.08 0.07 0.10 0.07 0.07 0.02 0.01 0.01 0.01 0.11 0.15 0.24 0.32 0.36 0.61 0.84 1.09 1.38 1.43 1.48 1.70 1.07 1.10 0.89 1.04 1.33 1.16 0.70 0.90 1.22 0.65 0.87 0.69 0.62 0.39 0.64 0.36 0.37
0.06 0.14 0.15 0.13 0.12 0.12 0.14 0.19 0.30 0.20 0.07 0.57 0.55 0.61 0.78 1.10 1.39 1.78 1.65 1.50 1.38 1.10 1.03 1.21 2.01 2.37 2.46 1.55 0.37 nan 1.38 0.74 0.64 1.02 0.69 0.86 0.92 0.30
0.16 0.21 0.25 0.20 0.17 0.20 0.24 0.39 0.43 0.44 0.55 0.65 0.74 0.92 1.26 1.73 2.00 1.79 1.29 1.59 1.33 1.48 1.72 1.64 2.15 2.62 3.60 2.90 2.26 0.92 nan 1.04 0.89 1.01 0.88 0.40 0.28 nan
0.27 0.33 0.23 0.23 0.26 0.31 0.36 0.50 0.49 0.93 1.32 1.61 1.12 1.37 1.43 1.88 1.68 1.24 1.13 0.82 nan 1.92 2.11 1.47 1.49 nan 2.54 2.26 2.47 0.98 0.60 nan 0.29 1.53 1.28 1.27 0.86 0.59
0.31 0.33 0.28 0.29 0.34 0.47 0.71 0.84 1.15 1.19 1.32 1.22 1.43 1.67 1.43 1.42 1.68 1.32 1.25 1.95 1.29 1.60 1.93 1.77 1.54 2.07 2.64 2.53 1.92 1.01 0.86 0.46 nan nan nan nan 2.58 3.24
0.35 0.33 0.38 0.43 0.50 0.68 0.93 1.38 1.70 1.70 1.46 1.73 1.74 1.47 1.39 1.91 0.89 1.07 1.33 1.24 1.56 2.04 1.71 1.74 1.53 1.65 1.87 2.21 2.23 1.58 1.10 1.10 0.71 0.74 0.70 nan nan nan
SL_Ratio
nan nan nan nan nan nan nan nan nan nan nan nan nan nan nan nan nan nan nan nan nan nan nan nan nan nan nan nan nan nan nan nan nan nan nan nan nan nan
nan nan nan nan nan nan nan nan nan nan nan nan nan nan nan nan nan nan nan nan nan nan nan nan nan nan nan nan nan nan nan nan nan nan nan nan nan nan
nan nan nan nan nan nan nan nan nan nan nan nan nan nan nan nan nan nan nan nan nan nan nan nan nan nan nan nan nan nan nan nan nan nan nan nan nan nan
nan nan nan nan nan nan nan nan nan nan nan nan nan nan nan nan nan nan nan nan nan nan nan nan nan nan nan nan nan nan nan nan nan nan nan nan nan nan
nan nan nan nan nan nan nan nan nan nan nan nan nan nan nan nan nan nan nan nan nan nan nan nan nan nan nan nan nan nan nan nan nan nan nan nan nan nan
nan nan nan nan nan nan nan nan nan nan nan nan nan nan nan nan nan nan nan nan nan nan nan nan nan nan nan nan nan nan nan nan nan nan nan nan nan nan
nan nan nan nan nan nan nan nan nan nan nan 5.0 5.0 nan nan nan nan nan nan nan nan nan nan nan nan nan nan nan nan nan nan nan nan nan nan nan nan nan
nan nan nan nan nan nan nan nan nan 0.0 5.0 5.3 6.0 nan nan nan nan nan nan nan 2.2 nan nan nan nan nan nan nan nan nan nan nan nan nan nan nan nan nan
nan nan nan nan nan nan nan nan nan nan nan nan nan nan nan nan nan nan nan nan nan nan nan nan nan nan nan nan nan nan nan nan nan nan nan nan nan nan
nan nan nan nan nan nan nan nan nan nan nan nan nan nan nan nan nan nan nan nan nan nan nan 2.5 nan nan nan nan nan nan nan nan nan nan nan nan nan nan
nan nan nan nan nan nan nan nan nan nan nan nan nan nan nan nan nan nan 2.5 2.5 2.4 2.5 nan 2.8 nan 2.0 nan nan nan nan nan nan nan nan nan nan nan nan
3.0 0.0 nan nan nan nan nan nan 5.5 5.5 nan nan nan nan nan nan nan nan 2.5 2.5 2.7 2.9 2.6 2.7 2.5 3.1 3.1 2.4 2.5 nan nan nan nan nan nan nan nan nan
4.4 3.7 nan nan nan nan nan nan 5.7 10.0 nan nan nan nan nan nan nan 2.5 nan 2.5 2.6 2.9 2.6 2.9 2.7 2.7 3.1 3.0 2.5 2.5 nan nan nan nan nan nan nan nan
4.4 2.8 nan nan nan nan nan nan nan nan 3.3 2.5 2.5 2.6 2.5 2.7 2.5 2.5 2.7 2.5 2.5 2.6 2.6 2.2 2.6 3.2 3.6 4.2 3.8 2.5 2.5 2.7 2.5 2.0 nan nan nan nan
3.8 nan nan nan nan nan nan nan nan 2.7 3.0 3.4 3.4 3.1 3.0 2.6 2.6 2.7 2.7 2.7 2.5 2.5 5.0 2.5 2.5 2.6 3.0 4.1 4.3 3.2 2.7 2.5 2.5 2.5 2.5 2.4 2.9 nan
nan 0.0 nan 6.0 nan nan nan nan nan 3.0 3.2 3.2 3.1 2.9 2.6 2.7 2.8 2.5 2.9 2.8 3.1 3.0 2.5 2.5 2.5 2.5 3.5 3.3 3.3 4.2 3.0 4.3 2.5 2.5 2.5 2.5 2.4 nan
nan 5.0 5.7 6.0 6.3 6.4 6.7 nan nan 3.3 2.8 3.0 3.3 3.2 3.1 3.0 3.2 2.7 3.1 3.2 4.4 4.2 4.2 3.3 3.2 3.2 3.0 3.6 5.1 4.0 3.8 4.1 3.0 2.7 2.8 3.0 3.2 2.7
4.7 5.2 6.5 5.5 4.7 6.7 6.3 4.1 3.2 2.8 3.1 3.0 3.2 3.3 3.6 3.6 3.7 3.6 3.3 3.9 4.8 4.5 4.6 3.7 3.9 4.9 3.7 3.4 3.1 4.1 3.9 4.2 3.8 4.0 3.7 4.6 4.4 4.7
5.7 5.0 5.1 4.6 4.2 3.6 3.6 3.3 3.4 3.0 3.4 3.1 3.3 3.2 3.3 3.8 3.8 4.5 4.4 4.6 5.1 4.8 4.4 4.0 4.8 5.8 7.0 7.3 3.3 nan 4.1 3.3 3.2 4.0 4.2 4.7 4.9 4.1
4.6 4.8 5.3 5.1 4.3 3.6 3.4 3.5 3.4 3.4 3.5 3.4 3.5 3.5 3.4 3.8 4.4 4.9 4.7 5.8 5.2 5.4 5.8 5.2 5.5 5.8 6.4 6.5 6.9 3.8 nan 3.5 3.8 4.4 4.3 3.5 3.3 nan
5.6 5.6 5.4 4.6 4.1 3.6 3.5 3.5 3.7 3.7 3.7 3.8 3.6 3.6 3.6 3.9 4.4 4.4 4.8 4.8 nan 6.0 7.0 6.9 4.8 nan 3.7 4.9 6.8 5.6 3.5 nan 3.8 4.4 4.1 5.6 5.2 4.4
5.9 5.4 5.0 4.1 3.9 3.6 3.6 3.6 3.7 3.5 3.6 3.8 3.7 3.6 3.6 4.0 4.8 5.2 5.5 6.0 5.9 6.2 6.6 5.1 4.4 4.6 5.3 6.2 7.0 7.6 5.6 3.8 nan nan nan nan 5.6 6.4
5.3 5.0 4.5 4.0 3.7 3.9 3.8 3.9 3.9 3.9 3.8 3.7 3.8 3.8 4.0 5.3 4.5 4.9 5.4 5.6 5.8 6.5 6.4 7.1 5.9 5.6 6.2 6.2 6.9 7.4 7.9 7.1 4.8 4.7 3.7 nan nan nan